[[{"header":{"parameterUnit":"m.s-1","parameterCategory":2,"la1":30.2991,"la2":30.254,"lo1":-89.0895,"lo2":-89.0444,"dy":0.0017,"dx":0.0017,"nx":28,"ny":28,"refTime":"2025-05-24T03:00:00:Z","depth":"0","parameterNumber":2,"parameterNumberName":"U-component_of_CURRENTS"},"data":[0,0,0,0,0,0,0,0,0,0,0,0,0,0,0,0,0,0,0,0,0,0,0,0,0,0,0,0,0,0,0,0,0,0,0,0,0,0,0,0,0,0,0,0,0,0,0,0,0,0,0,0,0,0,0,0,0,0,0.3447,0.3449,0,0.3523,0.3523,0.3523,0.352,0.3519,0.3519,0.3519,0.3501,0.35,0.35,0,0,0,0,0,0,0,0,0,0,0,0,0,0.334,0.334,0.3447,0.3449,0.3451,0.3523,0.3523,0.3523,0.352,0.3519,0.3519,0.3519,0.3501,0.35,0.35,0,0,0,0,0,0,0,0,0,0,0,0,0,0.3387,0.3341,0.3447,0.3466,0.347,0.3523,0.3523,0.3523,0.352,0.3519,0.3519,0.3519,0.3501,0.35,0.35,0.3497,0,0,0.3497,0.3497,0,0,0,0,0,0,0,0,0.3384,0.339,0.3461,0.3465,0.3469,0.3522,0.3479,0.3513,0.352,0.3489,0.3519,0.3519,0.3506,0.3505,0.3505,0.3496,0.3495,0.3497,0.3497,0.3497,0.3496,0,0,0,0,0,0,0,0.3381,0.3387,0.3466,0.3464,0.3469,0.3486,0.3491,0.3485,0.3486,0.3491,0.3494,0.352,0.3506,0.3506,0.3504,0.3495,0.3497,0.3497,0.3496,0.3496,0.3543,0.3545,0,0,0,0,0,0,0.3392,0.3384,0.3464,0.3469,0.3438,0.3489,0.3494,0.3496,0.3489,0.3492,0.352,0.352,0.3507,0.3505,0.3504,0.3539,0.3497,0.3496,0.3496,0.3542,0.3544,0.3546,0,0,0,0,0,0,0.3389,0.3398,0.3461,0.3438,0.3449,0.3491,0.3493,0.3498,0.3506,0.3514,0.3513,0.3528,0.3507,0.3505,0.3507,0.3537,0.3496,0.3495,0.354,0.3542,0.3545,0.3585,0,0,0,0,0,0,0.3385,0.3395,0.339,0.3438,0.3451,0.3499,0.3495,0.3499,0.3528,0.3528,0.352,0.3517,0.3506,0.3508,0.3506,0.3535,0.3495,0.3538,0.3541,0.3544,0.3582,0.3589,0.3595,0,0,0,0,0,0.338,0.3394,0.3388,0.3398,0.3444,0.3501,0.3507,0.353,0.3529,0.3535,0.353,0.3518,0.3528,0.3508,0.3506,0.3535,0.3536,0.354,0.3544,0.3579,0.3587,0.3594,0,0,0,0,0,0,0.3347,0.3397,0.3391,0.3417,0.3454,0.3504,0.3523,0.3536,0.3537,0.3538,0.3525,0.3522,0.3546,0.3533,0.3512,0.3562,0.3536,0.3539,0.3564,0.3572,0.3578,0.3641,0.3494,0,0,0,0,0,0.3336,0.3357,0.3403,0.3424,0.3441,0.3476,0.3499,0.3522,0.3543,0.3544,0.3537,0.3541,0.356,0.3557,0.3567,0.3576,0.362,0.3601,0.3607,0.3612,0.3665,0.3763,0.3784,0.3558,0.3558,0.3558,0,0,0.3335,0.3365,0.3377,0.3419,0.3444,0.3474,0.3487,0.3537,0.3562,0.3541,0.3553,0.3563,0.3571,0.3594,0.3603,0.3583,0.3691,0.3617,0.3621,0.3673,0.3769,0.3792,0.3812,0.356,0.356,0.356,0,0,0.3356,0.3361,0.3383,0.3413,0.3468,0.3488,0.3505,0.3549,0.3564,0.358,0.3592,0.3635,0.3612,0.3658,0.367,0.3722,0.373,0.3705,0.3777,0.387,0.389,0.3909,0.3955,0.3977,0.3698,0.3698,0.3698,0,0.3345,0.3376,0.3401,0.3431,0.3466,0.3493,0.3529,0.3548,0.3588,0.3625,0.3586,0.3664,0.3661,0.3752,0.377,0.3743,0.3775,0.3738,0.3881,0.39,0.3919,0.3962,0.3986,0.37,0.37,0.37,0.37,0,0.3373,0.3404,0.3427,0.346,0.3494,0.354,0.3579,0.3608,0.3618,0.3653,0.3737,0.3751,0.3816,0.381,0.3798,0.3934,0.3905,0.3883,0.3862,0.3944,0.3983,0.4008,0.3704,0.3703,0.3702,0.3702,0,0,0.3323,0.3426,0.3428,0.3457,0.352,0.3549,0.3607,0.368,0.3731,0.3765,0.3848,0.3907,0.395,0.3974,0.3984,0.4056,0.4187,0.4023,0.4027,0.4072,0.4365,0.4221,0.4233,0.418,0.4186,0.419,0.4325,0,0.3329,0.3409,0.3452,0.3507,0.3551,0.3604,0.3648,0.3721,0.3773,0.3846,0.3931,0.3994,0.3999,0.4029,0.4123,0.4178,0.4261,0.4151,0.4279,0.4283,0.4149,0.4262,0.4051,0.4145,0.435,0.4354,0.4357,0,0.3315,0.3385,0.3461,0.3555,0.3571,0.3595,0.3696,0.3746,0.3877,0.3923,0.4053,0.4102,0.4256,0.4211,0.442,0.4344,0.4387,0.4413,0.4418,0.4304,0.4188,0.4105,0.4182,0.4057,0.4395,0.4392,0.4389,0,0.3269,0.337,0.3436,0.3466,0.3574,0.3611,0.3657,0.3778,0.3836,0.3991,0.4048,0.4235,0.4305,0.444,0.452,0.4481,0.4706,0.4649,0.457,0.4557,0.4421,0.4387,0.4404,0.4817,0.4817,0.4817,0.4816,0,0.3254,0.3297,0.3414,0.3448,0.3511,0.3585,0.3656,0.3741,0.3864,0.3941,0.409,0.418,0.4366,0.4499,0.4578,0.4659,0.477,0.4635,0.4611,0.4419,0.4385,0.43,0.4265,0.4822,0.482,0.482,0.4819,0,0.3203,0.3278,0.3353,0.3468,0.3496,0.3536,0.3632,0.3686,0.3809,0.3921,0.397,0.417,0.4337,0.4497,0.4688,0.4694,0.4657,0.4787,0.4523,0.4465,0.4222,0.4196,0.4126,0.4012,0.473,0.4728,0.4726,0,0.3195,0.3238,0.3352,0.3377,0.3424,0.349,0.3532,0.3654,0.371,0.39,0.3943,0.4137,0.4248,0.4476,0.4534,0.4657,0.4574,0.4506,0.4405,0.4223,0.418,0.4045,0.3945,0.4231,0.4225,0.422,0.4216,0,0.3187,0.3219,0.3272,0.3335,0.3371,0.3415,0.348,0.3511,0.3646,0.3736,0.3845,0.3945,0.4141,0.4171,0.4313,0.4358,0.4261,0.4405,0.4319,0.3895,0.3658,0.3527,0.4099,0.4174,0.4178,0.4181,0.4183,0.4185,0.3152,0.3175,0.3225,0.3264,0.3297,0.33,0.3288,0.335,0.3402,0.3476,0.3668,0.3727,0.3856,0.4008,0.4036,0.3898,0.3942,0.3788,0.3805,0.371,0.3497,0.3947,0.3918,0.3921,0.3923,0.3926,0.3927,0,0.3097,0.3116,0.315,0.316,0.3136,0.3196,0.3212,0.3164,0.3151,0.3262,0.334,0.3402,0.3427,0.3516,0.3478,0.3345,0.3214,0.3255,0.3048,0.3008,0.3503,0.3374,0.31,0.31,0.31,0.31,0.31,0.31,0.3058,0.3051,0.3063,0.299,0.2985,0.2894,0.2869,0.2825,0.2844,0.2807,0.2807,0.2928,0.3111,0.3183,0.3055,0.2967,0.2764,0.2596,0.2651,0.3019,0.307,0.3118,0.2987,0.2637,0.2636,0.1994,0.199,0.1986]},{"header":{"parameterUnit":"m.s-1","parameterCategory":2,"la1":30.2991,"la2":30.254,"lo1":-89.0895,"lo2":-89.0444,"dy":0.0017,"dx":0.0017,"nx":28,"ny":28,"refTime":"2025-05-24T03:00:00:Z","depth":"0","parameterNumber":3,"parameterNumberName":"V-component_of_CURRENTS"},"data":[0,0,0,0,0,0,0,0,0,0,0,0,0,0,0,0,0,0,0,0,0,0,0,0,0,0,0,0,0,0,0,0,0,0,0,0,0,0,0,0,0,0,0,0,0,0,0,0,0,0,0,0,0,0,0,0,0,0,0.0596,0.0596,0,0.0586,0.0585,0.0585,0.0541,0.054,0.054,0.054,0.0415,0.0412,0.0409,0,0,0,0,0,0,0,0,0,0,0,0,0,0.0571,0.0571,0.0596,0.0596,0.0597,0.0586,0.0585,0.0584,0.0541,0.054,0.054,0.054,0.0416,0.0412,0.0408,0,0,0,0,0,0,0,0,0,0,0,0,0,0.0566,0.0571,0.0596,0.0581,0.058,0.0587,0.0585,0.0584,0.0541,0.054,0.054,0.054,0.0417,0.0412,0.0408,0.0385,0,0,0.0393,0.0391,0,0,0,0,0,0,0,0,0.0566,0.0565,0.0582,0.0582,0.0581,0.0572,0.0532,0.0515,0.0541,0.0546,0.054,0.054,0.0463,0.0454,0.0442,0.0379,0.0374,0.0393,0.039,0.0388,0.0387,0,0,0,0,0,0,0,0.0566,0.0566,0.0583,0.0583,0.0582,0.0574,0.0571,0.0528,0.0497,0.0546,0.0545,0.0558,0.046,0.0447,0.0439,0.0372,0.0393,0.0389,0.0386,0.0384,0.0293,0.0293,0,0,0,0,0,0,0.0586,0.0566,0.0583,0.0584,0.0583,0.0575,0.0572,0.0568,0.05,0.0493,0.0558,0.0556,0.0455,0.0444,0.0434,0.043,0.0388,0.0384,0.0381,0.0292,0.0293,0.0293,0,0,0,0,0,0,0.0585,0.0587,0.0584,0.0583,0.0583,0.0577,0.0572,0.0568,0.056,0.0513,0.0501,0.0556,0.0454,0.0441,0.0396,0.0424,0.0382,0.0377,0.0292,0.0292,0.0293,0.0405,0,0,0,0,0,0,0.0584,0.0586,0.0584,0.0584,0.0584,0.0597,0.0573,0.0569,0.0573,0.057,0.0507,0.0495,0.0453,0.0404,0.0392,0.0417,0.0374,0.0291,0.0292,0.0293,0.0401,0.041,0.0417,0,0,0,0,0,0.0583,0.0593,0.0583,0.0586,0.0582,0.0598,0.0596,0.0585,0.0574,0.0574,0.0527,0.0497,0.04,0.04,0.0386,0.041,0.0291,0.0292,0.0293,0.0398,0.0408,0.0417,0,0,0,0,0,0,0.0591,0.059,0.0579,0.0589,0.0597,0.0594,0.06,0.0593,0.0558,0.0552,0.0493,0.0478,0.0452,0.0409,0.0411,0.0384,0.0344,0.0342,0.0429,0.0438,0.0446,0.0516,0.037,0,0,0,0,0,0.0591,0.0595,0.0595,0.061,0.0609,0.0603,0.0607,0.0605,0.0584,0.0569,0.0527,0.0481,0.0444,0.0424,0.038,0.0361,0.0346,0.0369,0.0377,0.0384,0.043,0.0429,0.0443,0.0296,0.0296,0.0296,0,0,0.0608,0.0606,0.0612,0.0612,0.061,0.0628,0.0601,0.062,0.064,0.0559,0.0553,0.0502,0.0443,0.0425,0.0411,0.0394,0.0409,0.0385,0.0392,0.0435,0.0432,0.0447,0.046,0.0297,0.0296,0.0296,0,0,0.0656,0.063,0.0651,0.0654,0.0665,0.0656,0.0666,0.0662,0.0657,0.0644,0.0598,0.0576,0.0501,0.0489,0.0466,0.0492,0.0448,0.0462,0.0566,0.0564,0.0577,0.0589,0.0561,0.0569,0.0471,0.0472,0.0472,0,0.067,0.0697,0.0664,0.0687,0.0707,0.0674,0.0713,0.0701,0.0688,0.0704,0.0653,0.0609,0.0546,0.0568,0.0571,0.0518,0.0496,0.0536,0.0579,0.059,0.06,0.0569,0.0577,0.0477,0.0477,0.0476,0.0475,0,0.0734,0.0756,0.0772,0.0781,0.079,0.0821,0.0808,0.0812,0.0792,0.0794,0.0803,0.073,0.072,0.0683,0.063,0.0679,0.0631,0.0587,0.0566,0.0623,0.0584,0.059,0.0485,0.0483,0.0481,0.048,0,0,0.0757,0.0808,0.0811,0.0852,0.0846,0.0873,0.0893,0.0925,0.0971,0.0932,0.0996,0.0929,0.0914,0.089,0.0829,0.0824,0.0845,0.0745,0.0742,0.0739,0.0825,0.0747,0.0745,0.0806,0.0808,0.081,0.076,0,0.0817,0.0904,0.09,0.0984,0.1028,0.1007,0.1035,0.1058,0.1057,0.1096,0.1059,0.1074,0.0984,0.0985,0.0973,0.088,0.0872,0.0863,0.0754,0.0751,0.0693,0.0755,0.0687,0.0635,0.0765,0.0766,0.0767,0,0.0867,0.0929,0.1029,0.1114,0.1128,0.116,0.1224,0.1253,0.1285,0.1288,0.1314,0.1274,0.1279,0.1178,0.1102,0.1097,0.0989,0.0907,0.0901,0.081,0.0688,0.0602,0.0641,0.0474,0.0776,0.0776,0.0775,0,0.0916,0.1012,0.1107,0.1132,0.1208,0.1251,0.1281,0.132,0.1374,0.1428,0.1471,0.1459,0.1454,0.1351,0.1179,0.1144,0.1076,0.0995,0.0831,0.0822,0.0739,0.0719,0.0631,0.0961,0.0961,0.0961,0.0961,0,0.0974,0.1048,0.1145,0.1199,0.1308,0.1331,0.1436,0.1464,0.1534,0.1621,0.1587,0.1645,0.1498,0.143,0.1258,0.1075,0.1136,0.0885,0.0825,0.0768,0.0753,0.0581,0.0492,0.0959,0.096,0.096,0.096,0,0.101,0.1068,0.1188,0.1301,0.1336,0.1413,0.1519,0.1597,0.1653,0.1767,0.1794,0.1796,0.1708,0.1538,0.136,0.1174,0.0882,0.0914,0.0847,0.0781,0.0456,0.0375,0.0236,0.0158,0.0734,0.0732,0.0731,0,0.1043,0.1117,0.1258,0.1324,0.1376,0.1488,0.1557,0.1641,0.1734,0.1856,0.1922,0.1894,0.1882,0.1602,0.1277,0.0988,0.0828,0.072,0.0647,0.0465,0.0331,0.0268,0.021,0.056,0.0557,0.0555,0.0553,0,0.1118,0.1161,0.1251,0.1386,0.1479,0.1599,0.1716,0.1815,0.1924,0.2018,0.2127,0.2135,0.1872,0.156,0.1162,0.0941,0.0577,0.066,0.0503,0.0235,0.0134,0.002,0.0545,0.0532,0.0534,0.0536,0.0537,0.0537,0.1156,0.1221,0.133,0.1453,0.1559,0.1705,0.1809,0.1943,0.2097,0.225,0.2261,0.2257,0.1808,0.1261,0.0967,0.0362,0.0412,0.0169,0.0098,0.0061,-0.0038,0.0437,0.0335,0.0336,0.0336,0.0337,0.0338,0,0.1202,0.1275,0.1392,0.1536,0.1645,0.1705,0.1904,0.2015,0.2189,0.2293,0.2376,0.2099,0.1564,0.1025,0.0232,-0.0136,-0.0256,-0.032,-0.0417,-0.044,0.0002,-0.0031,-0.0252,-0.0252,-0.0252,-0.0252,-0.0252,-0.0251,0.1229,0.1324,0.1385,0.1574,0.1676,0.1839,0.1955,0.2119,0.2229,0.2305,0.2242,0.2214,0.1744,0.0446,-0.0414,-0.0589,-0.081,-0.0893,-0.0948,-0.0659,-0.0618,-0.058,-0.063,-0.0973,-0.0974,-0.1373,-0.1377,-0.138]}],[{"header":{"parameterUnit":"m.s-1","parameterCategory":2,"la1":30.2991,"la2":30.254,"lo1":-89.0895,"lo2":-89.0444,"dy":0.0017,"dx":0.0017,"nx":28,"ny":28,"refTime":"2025-05-24T03:00:00:Z","depth":"2","parameterNumber":2,"parameterNumberName":"U-component_of_CURRENTS"},"data":[0,0,0,0,0,0,0,0,0,0,0,0,0,0,0,0,0,0,0,0,0,0,0,0,0,0,0,0,0,0,0,0,0,0,0,0,0,0,0,0,0,0,0,0,0,0,0,0,0,0,0,0,0,0,0,0,0,0,0.2879,0.2879,0,0.307,0.3074,0.3077,0.3145,0.3142,0.314,0.3138,0.3146,0.3148,0.3151,0,0,0,0,0,0,0,0,0,0,0,0,0,0.2768,0.277,0.2879,0.288,0.288,0.3069,0.3074,0.3078,0.3145,0.3142,0.3139,0.3137,0.3145,0.3148,0.3151,0,0,0,0,0,0,0,0,0,0,0,0,0,0.2889,0.277,0.2879,0.2924,0.2928,0.3069,0.3074,0.3079,0.3146,0.3142,0.3139,0.3135,0.3144,0.3148,0.3151,0.3243,0,0,0.3162,0.3164,0,0,0,0,0,0,0,0,0.2882,0.2896,0.2916,0.2921,0.2926,0.3064,0.3037,0.3119,0.3146,0.3082,0.3138,0.3134,0.3093,0.3101,0.3172,0.3243,0.3243,0.3162,0.3165,0.3166,0.3167,0,0,0,0,0,0,0,0.2874,0.2889,0.2972,0.2917,0.2923,0.3,0.3014,0.3056,0.3114,0.3087,0.3088,0.3083,0.3096,0.3169,0.3171,0.3243,0.3162,0.3166,0.3168,0.3169,0.3241,0.3241,0,0,0,0,0,0,0.2809,0.288,0.2966,0.2976,0.2875,0.3003,0.3019,0.3038,0.3118,0.3124,0.3085,0.3085,0.3164,0.3167,0.3171,0.3192,0.3166,0.3169,0.3171,0.3241,0.3241,0.3241,0,0,0,0,0,0,0.2806,0.2816,0.2958,0.2917,0.2938,0.3005,0.3028,0.3043,0.3091,0.3116,0.312,0.3111,0.3162,0.3166,0.3089,0.3194,0.3171,0.3174,0.3242,0.3241,0.3241,0.3289,0,0,0,0,0,0,0.2803,0.2815,0.2836,0.2913,0.2937,0.298,0.303,0.3049,0.3085,0.3087,0.314,0.3139,0.3159,0.3083,0.3092,0.3199,0.3177,0.3242,0.3241,0.3241,0.3288,0.329,0.3292,0,0,0,0,0,0.2799,0.28,0.2837,0.2847,0.2955,0.2976,0.2997,0.3046,0.3089,0.3087,0.3068,0.3136,0.3092,0.3081,0.3094,0.3205,0.3242,0.3242,0.3241,0.3286,0.329,0.3292,0,0,0,0,0,0,0.2762,0.2808,0.2849,0.2868,0.2896,0.2978,0.2999,0.3045,0.3057,0.307,0.3087,0.3081,0.3085,0.3098,0.3087,0.3218,0.3202,0.3203,0.3232,0.3236,0.3238,0.329,0.318,0,0,0,0,0,0.2765,0.2774,0.2828,0.2837,0.2858,0.2944,0.2974,0.3017,0.3025,0.3037,0.305,0.3078,0.3112,0.3115,0.3139,0.3177,0.3203,0.3266,0.3268,0.3271,0.3316,0.3367,0.338,0.3239,0.3239,0.3239,0,0,0.275,0.2775,0.2783,0.2829,0.2882,0.2931,0.2956,0.2998,0.3049,0.3031,0.3071,0.3078,0.3112,0.3153,0.3166,0.3165,0.3316,0.327,0.3273,0.3318,0.3368,0.3382,0.3395,0.3239,0.3239,0.3239,0,0,0.2728,0.2754,0.2778,0.28,0.2858,0.2914,0.2913,0.299,0.303,0.3043,0.3071,0.3089,0.3123,0.3184,0.3221,0.3246,0.332,0.3284,0.3359,0.3406,0.342,0.3432,0.3456,0.347,0.3294,0.3294,0.3295,0,0.2697,0.276,0.2779,0.2814,0.2837,0.2898,0.2945,0.3009,0.3041,0.3084,0.3034,0.3166,0.3166,0.3294,0.3291,0.3272,0.3285,0.335,0.3415,0.3427,0.344,0.3461,0.3476,0.3297,0.3296,0.3296,0.3296,0,0.273,0.277,0.2771,0.2847,0.2875,0.2902,0.2978,0.3026,0.3075,0.3147,0.3239,0.3237,0.3325,0.3349,0.3322,0.3457,0.3432,0.3406,0.3418,0.3458,0.3476,0.3491,0.33,0.3299,0.3298,0.3298,0,0,0.2662,0.2772,0.2776,0.2824,0.2897,0.2922,0.3009,0.3112,0.3199,0.3256,0.3362,0.3435,0.3481,0.3522,0.3543,0.3579,0.364,0.3528,0.3529,0.3573,0.373,0.3539,0.3536,0.362,0.3623,0.3626,0.37,0,0.2678,0.2766,0.281,0.288,0.2936,0.2994,0.3062,0.3168,0.3243,0.3342,0.3451,0.354,0.3543,0.3587,0.3641,0.3665,0.3686,0.3622,0.367,0.3672,0.3515,0.355,0.3315,0.3345,0.3714,0.3717,0.3719,0,0.2711,0.277,0.2848,0.2937,0.2963,0.3009,0.3141,0.3205,0.3373,0.3436,0.359,0.3658,0.3816,0.3737,0.3885,0.3844,0.3792,0.3776,0.3778,0.3608,0.3509,0.3369,0.3359,0.3744,0.3742,0.374,0.3738,0,0.2675,0.2786,0.2847,0.2868,0.2981,0.3031,0.3103,0.3253,0.3318,0.3513,0.3589,0.3796,0.3881,0.3935,0.3931,0.3917,0.4003,0.398,0.3764,0.375,0.3567,0.3529,0.401,0.401,0.401,0.4009,0.4009,0,0.2655,0.2705,0.2847,0.2849,0.298,0.3032,0.3139,0.3258,0.3377,0.3476,0.3646,0.376,0.392,0.399,0.3979,0.3935,0.406,0.3803,0.3766,0.3566,0.3529,0.3892,0.3878,0.4012,0.4012,0.4011,0.4011,0,0.2607,0.2679,0.276,0.2885,0.2953,0.3042,0.3167,0.323,0.3355,0.3487,0.3551,0.376,0.385,0.3929,0.3985,0.396,0.3941,0.3843,0.3583,0.3513,0.3654,0.3641,0.3704,0.3698,0.3693,0.3689,0.3685,0,0.2579,0.2634,0.2782,0.2826,0.2882,0.3015,0.3101,0.3248,0.3285,0.3479,0.3525,0.3655,0.3701,0.3747,0.3718,0.3676,0.3736,0.3406,0.333,0.367,0.3629,0.3623,0.3617,0.3112,0.3104,0.3098,0.3092,0,0.2578,0.2635,0.2679,0.2753,0.2854,0.2988,0.309,0.3105,0.324,0.3314,0.3368,0.3408,0.3473,0.3347,0.3286,0.324,0.3425,0.3266,0.3728,0.3192,0.3108,0.3068,0.3083,0.3035,0.304,0.3045,0.3048,0.305,0.2563,0.2604,0.2622,0.2675,0.2804,0.2872,0.2899,0.2928,0.2957,0.2962,0.3092,0.3055,0.3112,0.2887,0.2799,0.2774,0.2986,0.2907,0.2931,0.296,0.2845,0.2752,0.2592,0.2595,0.2598,0.26,0.2602,0,0.253,0.2527,0.254,0.2596,0.2631,0.2768,0.2828,0.2751,0.2693,0.2724,0.2686,0.2438,0.2341,0.2394,0.2274,0.2276,0.2302,0.2189,0.2228,0.2286,0.2338,0.2193,0.1767,0.1764,0.1761,0.1759,0,0,0.2484,0.2436,0.2403,0.2398,0.2452,0.2499,0.2509,0.2398,0.2349,0.2174,0.2123,0.2219,0.233,0.2003,0.1972,0.1858,0.2059,0.1791,0.2468,0.2573,0.2621,0.2763,0.2605,0,0,0,0,0]},{"header":{"parameterUnit":"m.s-1","parameterCategory":2,"la1":30.2991,"la2":30.254,"lo1":-89.0895,"lo2":-89.0444,"dy":0.0017,"dx":0.0017,"nx":28,"ny":28,"refTime":"2025-05-24T03:00:00:Z","depth":"2","parameterNumber":3,"parameterNumberName":"V-component_of_CURRENTS"},"data":[0,0,0,0,0,0,0,0,0,0,0,0,0,0,0,0,0,0,0,0,0,0,0,0,0,0,0,0,0,0,0,0,0,0,0,0,0,0,0,0,0,0,0,0,0,0,0,0,0,0,0,0,0,0,0,0,0,0,-0.0192,-0.0195,0,-0.0225,-0.0223,-0.0221,-0.026,-0.0263,-0.0266,-0.0269,-0.0413,-0.0414,-0.0415,0,0,0,0,0,0,0,0,0,0,0,0,0,-0.0012,-0.0014,-0.0192,-0.0195,-0.0198,-0.0225,-0.0223,-0.0221,-0.0259,-0.0263,-0.0267,-0.0271,-0.0413,-0.0414,-0.0415,0,0,0,0,0,0,0,0,0,0,0,0,0,-0.0045,-0.0014,-0.0191,-0.0242,-0.0249,-0.0226,-0.0223,-0.022,-0.0258,-0.0263,-0.0268,-0.0273,-0.0413,-0.0414,-0.0415,-0.0326,0,0,-0.0419,-0.042,0,0,0,0,0,0,0,0,-0.0043,-0.0048,-0.0231,-0.0239,-0.0247,-0.0268,-0.0214,-0.0271,-0.0257,-0.0224,-0.0269,-0.0275,-0.039,-0.0394,-0.0347,-0.0333,-0.0339,-0.0419,-0.042,-0.0421,-0.0421,0,0,0,0,0,0,0,-0.0041,-0.0047,-0.0176,-0.0235,-0.0244,-0.0214,-0.0221,-0.0221,-0.026,-0.0228,-0.0238,-0.0285,-0.0392,-0.0345,-0.0351,-0.0341,-0.0419,-0.042,-0.0421,-0.0422,-0.0405,-0.0404,0,0,0,0,0,0,-0.0097,-0.0045,-0.0176,-0.018,-0.0187,-0.0215,-0.0223,-0.0233,-0.0258,-0.0274,-0.0281,-0.0288,-0.034,-0.035,-0.0357,-0.0343,-0.042,-0.0422,-0.0422,-0.0406,-0.0405,-0.0404,0,0,0,0,0,0,-0.0092,-0.0106,-0.0175,-0.0138,-0.0149,-0.0217,-0.0226,-0.0232,-0.0191,-0.0303,-0.0316,-0.0241,-0.0345,-0.0355,-0.0395,-0.0348,-0.0422,-0.0423,-0.0408,-0.0406,-0.0404,-0.0261,0,0,0,0,0,0,-0.0086,-0.0103,-0.0086,-0.0141,-0.0154,-0.0153,-0.0225,-0.023,-0.0228,-0.0235,-0.0272,-0.029,-0.0349,-0.0393,-0.0397,-0.0351,-0.0424,-0.0409,-0.0407,-0.0405,-0.0267,-0.0254,-0.0243,0,0,0,0,0,-0.0078,-0.0068,-0.0083,-0.01,-0.0141,-0.0154,-0.015,-0.0198,-0.0221,-0.0177,-0.0247,-0.0289,-0.0382,-0.0393,-0.0397,-0.0351,-0.041,-0.0408,-0.0405,-0.0272,-0.0257,-0.0244,0,0,0,0,0,0,0.0001,-0.0075,-0.0093,-0.0109,-0.0126,-0.0172,-0.0159,-0.0171,-0.017,-0.0189,-0.027,-0.029,-0.0302,-0.0346,-0.0357,-0.0343,-0.0401,-0.0399,-0.0299,-0.0285,-0.0273,-0.028,-0.0425,0,0,0,0,0,0.0029,0.0026,-0.0037,-0.0047,-0.0055,-0.0082,-0.0084,-0.0107,-0.0149,-0.0148,-0.0193,-0.0247,-0.028,-0.0306,-0.0335,-0.0318,-0.037,-0.0294,-0.0282,-0.0272,-0.0282,-0.0336,-0.033,-0.0395,-0.0395,-0.0395,0,0,0.004,0.0002,-0.0006,-0.0028,-0.0043,-0.0031,-0.0086,-0.0087,-0.008,-0.0167,-0.0159,-0.0195,-0.0267,-0.0266,-0.0273,-0.0306,-0.0271,-0.0269,-0.0259,-0.0276,-0.0333,-0.0327,-0.0321,-0.0393,-0.0393,-0.0394,0,0,0.0058,0.0049,0.0059,0.0062,0.0031,0.0022,0.0026,0.0006,-0.0001,-0.0001,-0.0069,-0.0093,-0.0131,-0.0174,-0.0204,-0.0139,-0.0201,-0.0135,-0.0083,-0.0133,-0.0129,-0.0125,-0.0139,-0.0138,-0.0135,-0.0135,-0.0135,0,0.0073,0.0085,0.0064,0.0081,0.0074,0.0048,0.0072,0.0079,0.0047,0.005,-0.0001,-0.0035,-0.0092,-0.0098,-0.0096,-0.0109,-0.0145,-0.0125,-0.0117,-0.0115,-0.0115,-0.013,-0.0131,-0.0128,-0.0129,-0.0129,-0.013,0,0.0115,0.0127,0.0131,0.0148,0.0162,0.0178,0.0152,0.0182,0.0163,0.0156,0.0156,0.0084,0.0059,0.005,-0.0017,-0.0012,-0.0038,-0.0087,-0.0149,-0.0099,-0.0118,-0.0122,-0.0117,-0.012,-0.0122,-0.0124,0,0,0.0138,0.0154,0.0163,0.0186,0.0203,0.0217,0.0239,0.0262,0.0291,0.0267,0.0288,0.0231,0.0218,0.018,0.0129,0.0065,0.0052,-0.001,-0.0016,-0.0015,-0.0036,-0.0075,-0.0083,-0.0,-0.0001,-0.0002,-0.0035,0,0.018,0.022,0.0226,0.0283,0.0306,0.0308,0.0343,0.0364,0.036,0.0384,0.0327,0.0335,0.0262,0.0262,0.0195,0.0096,0.0041,0.0067,-0.0093,-0.0097,-0.0134,-0.009,-0.006,-0.0091,-0.0039,-0.004,-0.004,0,0.0245,0.0259,0.03,0.0357,0.0373,0.0414,0.0479,0.0505,0.0527,0.0527,0.0526,0.0486,0.0447,0.0346,0.0213,0.0234,0.0105,0.0004,-0.0,-0.0101,-0.0146,-0.0144,-0.0101,-0.0048,-0.0047,-0.0047,-0.0046,0,0.0286,0.0333,0.0364,0.0379,0.0425,0.0465,0.0518,0.056,0.0602,0.0628,0.0665,0.0613,0.06,0.0439,0.0249,0.0234,0.0059,0.0023,-0.013,-0.0132,-0.0173,-0.0179,-0.0114,-0.0114,-0.0113,-0.0113,-0.0113,0,0.034,0.0379,0.0391,0.0406,0.0515,0.0522,0.0625,0.0679,0.0723,0.0809,0.0756,0.0783,0.0608,0.0493,0.0296,0.009,0.0111,-0.0116,-0.0152,-0.0117,-0.0117,-0.0151,-0.0154,-0.0115,-0.0114,-0.0114,-0.0114,0,0.0388,0.0381,0.0431,0.0479,0.0527,0.0607,0.0732,0.0798,0.0841,0.094,0.0962,0.0923,0.0778,0.0568,0.0312,0.0177,-0.0042,-0.0145,-0.0073,-0.0101,-0.02,-0.0196,-0.0263,-0.0265,-0.0266,-0.0268,-0.0269,0,0.0403,0.0418,0.0496,0.0536,0.0568,0.0679,0.0776,0.0871,0.0929,0.1025,0.107,0.0978,0.0904,0.0546,0.0249,-0.0062,-0.0124,-0.02,-0.024,-0.0192,-0.0219,-0.0213,-0.0207,-0.021,-0.0211,-0.0211,-0.0212,0,0.0434,0.0454,0.0494,0.0592,0.0692,0.0799,0.0923,0.0993,0.11,0.1184,0.1224,0.117,0.0862,0.0557,0.0154,-0.0054,-0.0135,-0.0219,-0.0194,-0.0188,-0.0149,-0.0174,-0.0168,-0.0215,-0.0215,-0.0215,-0.0215,-0.0214,0.0468,0.0502,0.0546,0.0661,0.078,0.0881,0.0978,0.1085,0.1215,0.1332,0.1274,0.1225,0.0931,0.0383,0.0064,-0.0228,-0.0233,-0.0302,-0.0298,-0.0293,-0.0292,-0.026,-0.0344,-0.0344,-0.0345,-0.0345,-0.0345,0,0.0504,0.0532,0.0606,0.073,0.0854,0.0918,0.1058,0.1137,0.1304,0.1384,0.1397,0.1084,0.0754,0.0412,-0.0022,-0.0283,-0.0291,-0.0358,-0.0296,-0.0291,-0.0287,-0.0284,-0.0334,-0.0335,-0.0335,-0.0336,0,0,0.0507,0.0562,0.0596,0.0774,0.0868,0.1019,0.1096,0.124,0.1318,0.1381,0.1371,0.1244,0.0853,0.0541,0.0161,-0.0069,-0.0112,-0.012,-0.0102,0.0021,0.0029,-0.0234,-0.022,0,0,0,0,0]}],[{"header":{"parameterUnit":"m.s-1","parameterCategory":2,"la1":30.2991,"la2":30.254,"lo1":-89.0895,"lo2":-89.0444,"dy":0.0017,"dx":0.0017,"nx":28,"ny":28,"refTime":"2025-05-24T03:00:00:Z","depth":"4","parameterNumber":2,"parameterNumberName":"U-component_of_CURRENTS"},"data":[0,0,0,0,0,0,0,0,0,0,0,0,0,0,0,0,0,0,0,0,0,0,0,0,0,0,0,0,0,0,0,0,0,0,0,0,0,0,0,0,0,0,0,0,0,0,0,0,0,0,0,0,0,0,0,0,0,0,0.113,0.113,0,0.1112,0.1112,0.1112,0.1129,0.1129,0.1129,0.113,0.1236,0.1239,0.1241,0,0,0,0,0,0,0,0,0,0,0,0,0,0.1144,0.1144,0.113,0.113,0.1129,0.1112,0.1112,0.1112,0.1129,0.1129,0.113,0.113,0.1236,0.1238,0.1241,0,0,0,0,0,0,0,0,0,0,0,0,0,0.1136,0.1144,0.113,0.1133,0.1133,0.1112,0.1112,0.1112,0.1128,0.1129,0.113,0.113,0.1235,0.1238,0.1242,0.1252,0,0,0.1253,0.1255,0,0,0,0,0,0,0,0,0.1136,0.1136,0.1133,0.1133,0.1133,0.1121,0.1156,0.1164,0.1128,0.1133,0.113,0.1131,0.1207,0.1213,0.121,0.1257,0.1262,0.1253,0.1256,0.1257,0.1258,0,0,0,0,0,0,0,0.1137,0.1136,0.1126,0.1133,0.1132,0.1123,0.1123,0.1157,0.1171,0.1133,0.1133,0.1127,0.1208,0.1207,0.1213,0.1263,0.1253,0.1257,0.1259,0.126,0.139,0.1391,0,0,0,0,0,0,0.1134,0.1137,0.1127,0.1125,0.1133,0.1122,0.1123,0.1126,0.1168,0.1173,0.1126,0.1127,0.12,0.1209,0.1217,0.1342,0.1257,0.1261,0.1263,0.1389,0.139,0.1392,0,0,0,0,0,0,0.1135,0.1134,0.1127,0.1128,0.1126,0.1122,0.1125,0.1126,0.1161,0.1161,0.117,0.1165,0.1201,0.1212,0.1295,0.1342,0.1262,0.1266,0.1387,0.1389,0.1391,0.1521,0,0,0,0,0,0,0.1136,0.1135,0.116,0.1128,0.1126,0.1157,0.1125,0.1125,0.1152,0.1155,0.1197,0.1204,0.1202,0.1289,0.1298,0.1346,0.1268,0.1386,0.1388,0.139,0.1515,0.1527,0.1537,0,0,0,0,0,0.1136,0.1155,0.1161,0.1161,0.1153,0.1159,0.1159,0.1158,0.1154,0.1189,0.1218,0.1205,0.1309,0.1295,0.1305,0.1354,0.1385,0.1388,0.139,0.151,0.1524,0.1537,0,0,0,0,0,0,0.1171,0.1157,0.1163,0.1179,0.1191,0.1162,0.1181,0.1182,0.1228,0.1237,0.1243,0.1255,0.134,0.1324,0.1308,0.1391,0.1336,0.1341,0.1423,0.1437,0.1448,0.1403,0.1272,0,0,0,0,0,0.119,0.1207,0.1197,0.1217,0.122,0.1212,0.1219,0.1222,0.1239,0.1259,0.1296,0.1319,0.1349,0.1379,0.1406,0.1467,0.145,0.1493,0.1505,0.1514,0.1481,0.1533,0.1546,0.1401,0.1401,0.1401,0,0,0.1197,0.1203,0.1206,0.1227,0.1227,0.1244,0.122,0.1241,0.1271,0.1266,0.1347,0.1376,0.1375,0.1444,0.1477,0.1446,0.1551,0.1518,0.1527,0.1487,0.1537,0.1551,0.1564,0.1403,0.1402,0.1402,0,0,0.1209,0.1237,0.1248,0.1273,0.1291,0.1291,0.131,0.1322,0.1349,0.1417,0.1419,0.1438,0.1531,0.1503,0.1504,0.1577,0.1614,0.1643,0.1667,0.1721,0.1733,0.1744,0.1765,0.1776,0.1644,0.1644,0.1644,0,0.1232,0.1239,0.1256,0.1284,0.1303,0.1319,0.134,0.1369,0.1419,0.1443,0.146,0.154,0.1515,0.1561,0.1582,0.1593,0.1672,0.1629,0.1738,0.1748,0.1756,0.1775,0.1786,0.165,0.165,0.1649,0.1648,0,0.1238,0.1267,0.1279,0.1321,0.1357,0.1381,0.1415,0.1471,0.1506,0.1524,0.161,0.1603,0.1629,0.1646,0.1635,0.1706,0.176,0.1758,0.171,0.1779,0.1794,0.1803,0.166,0.1658,0.1656,0.1654,0,0,0.1239,0.1271,0.1287,0.1308,0.1379,0.1401,0.147,0.1516,0.156,0.1628,0.167,0.1692,0.1708,0.1703,0.1721,0.1752,0.1845,0.1817,0.1817,0.1846,0.2027,0.1903,0.19,0.1959,0.196,0.1962,0.2022,0,0.1244,0.1275,0.1308,0.1365,0.1377,0.144,0.1504,0.1564,0.1624,0.1684,0.1677,0.1736,0.1736,0.1775,0.181,0.1838,0.1879,0.1829,0.1943,0.1943,0.1833,0.1907,0.1967,0.2028,0.203,0.2031,0.2033,0,0.1246,0.1266,0.1299,0.1369,0.1386,0.1441,0.1545,0.1608,0.1687,0.1742,0.1804,0.1831,0.1851,0.1845,0.1936,0.1966,0.1996,0.2012,0.2016,0.1845,0.1834,0.1936,0.2048,0.2047,0.2046,0.2045,0.2044,0,0.1218,0.1273,0.1295,0.1324,0.1403,0.145,0.1513,0.1619,0.1687,0.1785,0.1837,0.1909,0.1935,0.201,0.2015,0.2039,0.2123,0.2123,0.2035,0.2026,0.2063,0.205,0.2181,0.218,0.218,0.218,0.218,0,0.1207,0.1237,0.1283,0.1304,0.1352,0.1438,0.1518,0.1607,0.1724,0.1795,0.1871,0.1928,0.2007,0.2052,0.2067,0.207,0.2159,0.2028,0.2034,0.2118,0.211,0.2071,0.2057,0.2182,0.2182,0.2181,0.2181,0,0.1169,0.1203,0.123,0.1305,0.1333,0.1379,0.151,0.1562,0.1716,0.1809,0.1847,0.1973,0.204,0.2081,0.2153,0.2105,0.2112,0.2093,0.2164,0.2176,0.1971,0.1964,0.1994,0.199,0.1987,0.1984,0.1982,0,0.1139,0.1142,0.121,0.1228,0.1263,0.1333,0.1372,0.1534,0.1604,0.1819,0.1841,0.1961,0.2014,0.2008,0.2068,0.208,0.2064,0.2055,0.2005,0.1949,0.1954,0.1951,0.1948,0.1976,0.1975,0.1975,0.1974,0,0.1064,0.1101,0.1121,0.1158,0.1196,0.1233,0.1318,0.1364,0.1554,0.1694,0.1807,0.1849,0.1908,0.1937,0.1961,0.1966,0.2046,0.202,0.2027,0.198,0.1929,0.1936,0.1937,0.1962,0.1964,0.1965,0.1966,0,0.1012,0.1004,0.1039,0.1073,0.1116,0.1137,0.1184,0.1268,0.1367,0.1621,0.1644,0.1772,0.1894,0.188,0.1898,0.1891,0.1867,0.1814,0.183,0.1844,0.1763,0.1674,0.1631,0,0,0,0,0,0.0941,0.0933,0.0949,0.0976,0.1021,0.1055,0.1152,0.1212,0.1377,0.1422,0.1554,0.1606,0.1671,0.1727,0.1688,0.1807,0.185,0.1753,0.1791,0.19,0.1913,0.183,0,0,0,0,0,0,0.0897,0.0904,0.0912,0.0894,0.0903,0.0937,0.0995,0.1101,0.1144,0.1328,0.1358,0.1513,0.1571,0.1673,0.1658,0.1675,0.1669,0.1841,0.1838,0.1892,0.1904,0.1915,0.1834,0,0,0,0,0]},{"header":{"parameterUnit":"m.s-1","parameterCategory":2,"la1":30.2991,"la2":30.254,"lo1":-89.0895,"lo2":-89.0444,"dy":0.0017,"dx":0.0017,"nx":28,"ny":28,"refTime":"2025-05-24T03:00:00:Z","depth":"4","parameterNumber":3,"parameterNumberName":"V-component_of_CURRENTS"},"data":[0,0,0,0,0,0,0,0,0,0,0,0,0,0,0,0,0,0,0,0,0,0,0,0,0,0,0,0,0,0,0,0,0,0,0,0,0,0,0,0,0,0,0,0,0,0,0,0,0,0,0,0,0,0,0,0,0,0,-0.0128,-0.0129,0,-0.0157,-0.0157,-0.0158,-0.0156,-0.0155,-0.0155,-0.0155,-0.0257,-0.026,-0.0263,0,0,0,0,0,0,0,0,0,0,0,0,0,-0.0089,-0.009,-0.0128,-0.0129,-0.0129,-0.0157,-0.0157,-0.0158,-0.0156,-0.0155,-0.0155,-0.0155,-0.0256,-0.0259,-0.0263,0,0,0,0,0,0,0,0,0,0,0,0,0,-0.011,-0.009,-0.0128,-0.0132,-0.0133,-0.0157,-0.0157,-0.0158,-0.0156,-0.0155,-0.0155,-0.0154,-0.0255,-0.0259,-0.0263,-0.0301,0,0,-0.0277,-0.0279,0,0,0,0,0,0,0,0,-0.0109,-0.0111,-0.0131,-0.0132,-0.0133,-0.0153,-0.0181,-0.021,-0.0156,-0.0146,-0.0155,-0.0154,-0.023,-0.0237,-0.024,-0.0306,-0.031,-0.0278,-0.028,-0.0282,-0.0284,0,0,0,0,0,0,0,-0.0107,-0.011,-0.0139,-0.0132,-0.0133,-0.0139,-0.0141,-0.0186,-0.0191,-0.0147,-0.0147,-0.0152,-0.0231,-0.0236,-0.0243,-0.0312,-0.0277,-0.0282,-0.0284,-0.0286,-0.0398,-0.0398,0,0,0,0,0,0,-0.0106,-0.0109,-0.0138,-0.014,-0.0121,-0.014,-0.0142,-0.0146,-0.0189,-0.0195,-0.0153,-0.0152,-0.0228,-0.0238,-0.0247,-0.0283,-0.0282,-0.0287,-0.0289,-0.0397,-0.0398,-0.0398,0,0,0,0,0,0,-0.0105,-0.0108,-0.0137,-0.0126,-0.013,-0.0141,-0.0146,-0.0147,-0.0158,-0.0193,-0.0199,-0.0162,-0.0228,-0.024,-0.0283,-0.0288,-0.0289,-0.0293,-0.0397,-0.0397,-0.0398,-0.0364,0,0,0,0,0,0,-0.0103,-0.0107,-0.0113,-0.0126,-0.013,-0.0144,-0.0146,-0.0148,-0.0162,-0.0161,-0.0203,-0.0211,-0.0229,-0.0276,-0.0287,-0.0294,-0.0296,-0.0397,-0.0397,-0.0398,-0.0365,-0.0363,-0.0362,0,0,0,0,0,-0.0102,-0.0107,-0.0113,-0.0117,-0.0136,-0.0145,-0.0147,-0.0153,-0.0163,-0.0162,-0.0192,-0.021,-0.0287,-0.028,-0.0293,-0.0301,-0.0396,-0.0397,-0.0398,-0.0366,-0.0364,-0.0362,0,0,0,0,0,0,-0.0086,-0.0108,-0.0114,-0.0124,-0.0132,-0.0144,-0.015,-0.016,-0.0183,-0.0185,-0.0222,-0.0232,-0.0271,-0.0294,-0.0286,-0.0334,-0.0342,-0.0346,-0.0313,-0.0312,-0.0311,-0.0302,-0.03,0,0,0,0,0,-0.0088,-0.01,-0.0115,-0.0122,-0.0128,-0.0143,-0.0151,-0.0152,-0.0173,-0.0182,-0.0211,-0.0245,-0.0284,-0.0303,-0.0336,-0.037,-0.0389,-0.0382,-0.038,-0.0379,-0.038,-0.0418,-0.0419,-0.04,-0.04,-0.04,0,0,-0.0083,-0.0097,-0.0103,-0.012,-0.0129,-0.013,-0.0146,-0.0151,-0.0151,-0.0193,-0.0209,-0.0248,-0.0293,-0.0321,-0.0341,-0.0341,-0.039,-0.038,-0.0378,-0.038,-0.0418,-0.042,-0.0422,-0.04,-0.04,-0.04,0,0,-0.0074,-0.0092,-0.0098,-0.0105,-0.0118,-0.0124,-0.0128,-0.0142,-0.0148,-0.017,-0.0201,-0.0241,-0.0292,-0.032,-0.0344,-0.036,-0.0385,-0.0371,-0.0355,-0.0391,-0.0393,-0.0395,-0.04,-0.0403,-0.0366,-0.0365,-0.0365,0,-0.0067,-0.0073,-0.0098,-0.0101,-0.0102,-0.0121,-0.0115,-0.0127,-0.0149,-0.0159,-0.0168,-0.0251,-0.0289,-0.0336,-0.0336,-0.0357,-0.0372,-0.0357,-0.0388,-0.0391,-0.0393,-0.0399,-0.0402,-0.0364,-0.0364,-0.0364,-0.0364,0,-0.0054,-0.0062,-0.0065,-0.0074,-0.008,-0.0076,-0.0091,-0.0098,-0.0114,-0.0127,-0.0173,-0.0226,-0.0269,-0.0293,-0.0322,-0.0362,-0.0364,-0.0385,-0.039,-0.0393,-0.0398,-0.0403,-0.0362,-0.0362,-0.0363,-0.0363,0,0,-0.0026,-0.0051,-0.005,-0.0047,-0.0062,-0.0058,-0.0066,-0.0075,-0.0074,-0.0113,-0.0127,-0.0202,-0.0231,-0.0261,-0.0307,-0.0346,-0.0374,-0.037,-0.0373,-0.0369,-0.0433,-0.0412,-0.0414,-0.0403,-0.0404,-0.0404,-0.0422,0,-0.0005,-0.0001,-0.002,-0.0005,-0.0002,-0.002,-0.0023,-0.0035,-0.0051,-0.0068,-0.0136,-0.0166,-0.0218,-0.0238,-0.0288,-0.0363,-0.0387,-0.0366,-0.0436,-0.0438,-0.0415,-0.042,-0.0408,-0.0425,-0.0426,-0.0427,-0.0427,0,0.0019,0.0019,0.0034,0.0032,0.0032,0.0041,0.0044,0.0039,0.0003,-0.0011,-0.006,-0.0107,-0.018,-0.0215,-0.0332,-0.0318,-0.0367,-0.042,-0.0422,-0.042,-0.0426,-0.0428,-0.0435,-0.0434,-0.0434,-0.0433,-0.0433,0,0.0058,0.0058,0.0075,0.0076,0.0071,0.0079,0.0076,0.0056,0.0065,0.0026,0.0029,-0.0067,-0.0103,-0.0203,-0.0313,-0.0322,-0.0432,-0.0452,-0.0473,-0.047,-0.0498,-0.0496,-0.0515,-0.0515,-0.0515,-0.0515,-0.0515,0,0.0086,0.01,0.0099,0.011,0.0145,0.012,0.0148,0.0137,0.0125,0.0143,0.0063,0.0054,-0.0104,-0.0185,-0.0291,-0.0394,-0.041,-0.0469,-0.048,-0.048,-0.0476,-0.05,-0.0498,-0.0516,-0.0516,-0.0515,-0.0515,0,0.0114,0.0112,0.0135,0.0145,0.0161,0.0182,0.0207,0.0225,0.0209,0.023,0.0223,0.0145,0.0035,-0.0113,-0.0268,-0.0344,-0.0457,-0.0481,-0.0448,-0.0457,-0.0471,-0.0467,-0.0502,-0.0502,-0.0502,-0.0501,-0.0501,0,0.0125,0.014,0.0173,0.0203,0.0212,0.0245,0.0273,0.0272,0.03,0.0289,0.0308,0.0216,0.0146,-0.0045,-0.0216,-0.0405,-0.0432,-0.0472,-0.0499,-0.0466,-0.0473,-0.047,-0.0467,-0.05,-0.05,-0.05,-0.05,0,0.0149,0.0161,0.0183,0.0247,0.0291,0.0338,0.0379,0.0412,0.0414,0.0405,0.0396,0.0289,0.0171,-0.0014,-0.0159,-0.03,-0.0448,-0.0468,-0.047,-0.0496,-0.0464,-0.0471,-0.0468,-0.0499,-0.0499,-0.0499,-0.0499,0,0.0172,0.0193,0.023,0.0287,0.0347,0.041,0.0426,0.0464,0.0489,0.0482,0.0478,0.0336,0.0248,0.0043,-0.0097,-0.0236,-0.0273,-0.0309,-0.032,-0.0323,-0.0283,-0.0216,-0.0181,0,0,0,0,0,0.0192,0.0222,0.0272,0.0333,0.039,0.0429,0.0493,0.0504,0.0517,0.0532,0.051,0.0403,0.0199,0.0101,-0.0032,-0.0111,-0.0314,-0.0271,-0.0365,-0.0491,-0.0493,-0.0477,0,0,0,0,0,0,0.0209,0.0254,0.0273,0.036,0.0408,0.0481,0.052,0.0533,0.0543,0.0535,0.0428,0.0379,0.017,0.0271,-0.0034,-0.0078,-0.0151,-0.0372,-0.0375,-0.0491,-0.0492,-0.0493,-0.0477,0,0,0,0,0]}]]